When you browse on this site, cookies collect data to enhance your experience and personalize the content and advertising you see.
Visit our Privacy Policy to learn more. By continuing to use the site, you agree to this use of cookies and data.
  • In Hungary
  • List of Countries
  • For 7 days
  • Water Temperature
  • Satellite Maps
  • Weather Map
  • News
  • Weather Widgets
  • user-avatar
    Login

    Hourly Weather Shipulinka

    Today, 21 May, Tuesday

    Time Temperature Precipitation Wind Pressure Humidity
    00:00 +17°C° 0 mm 2 mps 755 mmHg 75%
    01:00 +17°C° 0 mm 2 mps 755 mmHg 77%
    02:00 +16°C° 0 mm 2 mps 755 mmHg 78%
    03:00 +16°C° 0 mm 2 mps 755 mmHg 79%
    04:00 +17°C° 0 mm 2 mps 755 mmHg 80%
    05:00 +17°C° 0 mm 3 mps 755 mmHg 80%
    06:00 +18°C° 0 mm 3 mps 755 mmHg 76%
    07:00 +19°C° 0 mm 3 mps 754 mmHg 72%
    08:00 +21°C° 0 mm 3 mps 754 mmHg 68%
    09:00 +22°C° 0 mm 3 mps 754 mmHg 64%
    10:00 +24°C° 0 mm 3 mps 754 mmHg 60%
    11:00 +26°C° 0 mm 3 mps 754 mmHg 55%
    12:00 +26°C° 0 mm 3 mps 753 mmHg 53%
    13:00 +27°C° 0 mm 3 mps 753 mmHg 50%
    14:00 +28°C° 0 mm 3 mps 753 mmHg 48%
    15:00 +27°C° 0.1 mm 2 mps 753 mmHg 54%
    16:00 +25°C° 0.1 mm 1 mps 752 mmHg 61%
    17:00 +24°C° 0.1 mm 1 mps 752 mmHg 68%
    18:00 +23°C° 0.4 mm 1 mps 752 mmHg 73%
    19:00 +22°C° 0.4 mm 1 mps 752 mmHg 78%
    20:00 +21°C° 0.4 mm 1 mps 752 mmHg 83%
    21:00 +20°C° 0.4 mm 1 mps 752 mmHg 85%
    22:00 +19°C° 0.4 mm 1 mps 751 mmHg 87%
    23:00 +17°C° 0.4 mm 2 mps 751 mmHg 89%

    Tomorrow, 22 May, Wednesday

    Time Temperature Precipitation Wind Pressure Humidity
    00:00 +18°C° 0.6 mm 1 mps 751 mmHg 89%
    01:00 +18°C° 0.6 mm 1 mps 751 mmHg 90%
    02:00 +16°C° 0.6 mm 1 mps 751 mmHg 91%
    03:00 +16°C° 0.3 mm 1 mps 751 mmHg 92%
    04:00 +16°C° 0.3 mm 1 mps 751 mmHg 93%
    05:00 +16°C° 0.3 mm 1 mps 751 mmHg 94%
    06:00 +17°C° 0.1 mm 2 mps 751 mmHg 90%
    07:00 +18°C° 0.1 mm 2 mps 751 mmHg 87%
    08:00 +20°C° 0.1 mm 2 mps 750 mmHg 83%
    09:00 +21°C° 0.1 mm 2 mps 750 mmHg 76%
    10:00 +23°C° 0.1 mm 2 mps 750 mmHg 69%
    11:00 +25°C° 0.1 mm 2 mps 749 mmHg 62%
    12:00 +25°C° 0.1 mm 2 mps 749 mmHg 60%
    13:00 +26°C° 0.1 mm 2 mps 749 mmHg 57%
    14:00 +26°C° 0.1 mm 2 mps 749 mmHg 54%
    15:00 +26°C° 0 mm 2 mps 749 mmHg 58%
    16:00 +25°C° 0 mm 2 mps 748 mmHg 62%
    17:00 +25°C° 0 mm 2 mps 748 mmHg 66%
    18:00 +23°C° 0 mm 2 mps 748 mmHg 73%
    19:00 +22°C° 0 mm 1 mps 748 mmHg 79%
    20:00 +20°C° 0 mm 1 mps 748 mmHg 86%
    21:00 +19°C° 0 mm 1 mps 748 mmHg 88%
    22:00 +19°C° 0 mm 1 mps 748 mmHg 91%
    23:00 +18°C° 0 mm 1 mps 748 mmHg 94%

    Day after tomorrow, 23 May, Thursday

    Time Temperature Precipitation Wind Pressure Humidity
    00:00 +16°C° 0.5 mm 1 mps 748 mmHg 94%
    01:00 +16°C° 0.5 mm 1 mps 748 mmHg 95%
    02:00 +16°C° 0.5 mm 1 mps 748 mmHg 96%
    03:00 +16°C° 0.3 mm 1 mps 748 mmHg 96%
    04:00 +16°C° 0.3 mm 1 mps 748 mmHg 96%
    05:00 +16°C° 0.3 mm 1 mps 748 mmHg 97%
    06:00 +18°C° 0 mm 1 mps 748 mmHg 92%
    07:00 +20°C° 0 mm 1 mps 749 mmHg 88%
    08:00 +21°C° 0 mm 1 mps 749 mmHg 84%
    09:00 +21°C° 0.5 mm 2 mps 749 mmHg 78%
    10:00 +22°C° 0.5 mm 3 mps 749 mmHg 73%
    11:00 +24°C° 0.5 mm 3 mps 749 mmHg 68%
    12:00 +24°C° 0.2 mm 3 mps 749 mmHg 66%
    13:00 +24°C° 0.2 mm 3 mps 749 mmHg 65%
    14:00 +24°C° 0.2 mm 3 mps 749 mmHg 63%
    15:00 +24°C° 0.1 mm 3 mps 749 mmHg 65%
    16:00 +23°C° 0.1 mm 2 mps 749 mmHg 67%
    17:00 +23°C° 0.1 mm 2 mps 749 mmHg 69%
    18:00 +21°C° 0 mm 2 mps 749 mmHg 74%
    19:00 +20°C° 0 mm 2 mps 749 mmHg 80%
    20:00 +20°C° 0 mm 1 mps 749 mmHg 85%
    21:00 +18°C° 0 mm 2 mps 749 mmHg 86%
    22:00 +17°C° 0 mm 2 mps 749 mmHg 87%
    23:00 +17°C° 0 mm 2 mps 749 mmHg 88%

    24 May, Friday

    Time Temperature Precipitation Wind Pressure Humidity
    00:00 +16°C° 0.4 mm 2 mps 749 mmHg 90%
    01:00 +15°C° 0.4 mm 2 mps 749 mmHg 93%
    02:00 +15°C° 0.4 mm 2 mps 749 mmHg 96%
    03:00 +15°C° 0.2 mm 1 mps 749 mmHg 96%
    04:00 +15°C° 0.2 mm 1 mps 748 mmHg 96%
    05:00 +15°C° 0.2 mm 1 mps 748 mmHg 97%
    06:00 +16°C° 0.2 mm 1 mps 748 mmHg 96%
    07:00 +18°C° 0.2 mm 1 mps 748 mmHg 95%
    08:00 +19°C° 0.2 mm 1 mps 748 mmHg 94%
    09:00 +19°C° 0.4 mm 1 mps 748 mmHg 92%
    10:00 +20°C° 0.4 mm 1 mps 748 mmHg 90%
    11:00 +20°C° 0.4 mm 1 mps 748 mmHg 89%
    12:00 +20°C° 1.4 mm 1 mps 748 mmHg 88%
    13:00 +20°C° 1.4 mm 2 mps 748 mmHg 87%
    14:00 +20°C° 1.4 mm 2 mps 748 mmHg 87%
    15:00 +19°C° 0.7 mm 2 mps 747 mmHg 88%
    16:00 +19°C° 0.7 mm 2 mps 747 mmHg 89%
    17:00 +19°C° 0.7 mm 2 mps 747 mmHg 90%
    18:00 +18°C° 0.1 mm 2 mps 747 mmHg 92%
    19:00 +17°C° 0.1 mm 2 mps 747 mmHg 94%
    20:00 +16°C° 0.1 mm 2 mps 747 mmHg 96%
    21:00 +15°C° 0 mm 2 mps 747 mmHg 95%
    22:00 +14°C° 0 mm 2 mps 747 mmHg 95%
    23:00 +12°C° 0 mm 3 mps 747 mmHg 94%

    25 May, Saturday

    Time Temperature Precipitation Wind Pressure Humidity
    00:00 +11°C° 0.1 mm 3 mps 747 mmHg 94%
    01:00 +11°C° 0.1 mm 3 mps 747 mmHg 93%
    02:00 +10°C° 0.1 mm 3 mps 747 mmHg 92%
    03:00 +10°C° 0 mm 2 mps 747 mmHg 92%
    04:00 +10°C° 0 mm 2 mps 747 mmHg 91%
    05:00 +10°C° 0 mm 2 mps 747 mmHg 91%
    06:00 +12°C° 0.1 mm 2 mps 747 mmHg 88%
    07:00 +12°C° 0.1 mm 2 mps 747 mmHg 84%
    08:00 +13°C° 0.1 mm 2 mps 747 mmHg 81%
    09:00 +14°C° 0 mm 3 mps 747 mmHg 73%
    10:00 +17°C° 0 mm 3 mps 747 mmHg 65%
    11:00 +18°C° 0 mm 3 mps 747 mmHg 57%
    12:00 +19°C° 0 mm 3 mps 747 mmHg 54%
    13:00 +20°C° 0 mm 3 mps 747 mmHg 51%
    14:00 +21°C° 0 mm 2 mps 746 mmHg 48%
    15:00 +20°C° 0 mm 2 mps 746 mmHg 49%
    16:00 +20°C° 0 mm 2 mps 746 mmHg 51%
    17:00 +20°C° 0 mm 2 mps 746 mmHg 52%
    18:00 +18°C° 0 mm 2 mps 746 mmHg 59%
    19:00 +18°C° 0 mm 1 mps 745 mmHg 67%
    20:00 +15°C° 0 mm 1 mps 745 mmHg 74%
    21:00 +14°C° 0 mm 1 mps 745 mmHg 75%
    22:00 +13°C° 0 mm 1 mps 745 mmHg 77%
    23:00 +12°C° 0 mm 1 mps 745 mmHg 79%

    26 May, Sunday

    Time Temperature Precipitation Wind Pressure Humidity
    00:00 +12°C° 0 mm 1 mps 745 mmHg 80%
    01:00 +12°C° 0 mm 2 mps 745 mmHg 81%
    02:00 +12°C° 0 mm 2 mps 745 mmHg 82%
    03:00 +12°C° 0.5 mm 2 mps 745 mmHg 86%
    04:00 +11°C° 0.5 mm 3 mps 744 mmHg 91%
    05:00 +11°C° 0.5 mm 3 mps 744 mmHg 95%
    06:00 +11°C° 0 mm 3 mps 744 mmHg 92%
    07:00 +11°C° 0 mm 3 mps 744 mmHg 90%
    08:00 +11°C° 0 mm 4 mps 745 mmHg 87%
    09:00 +12°C° 0.3 mm 4 mps 745 mmHg 84%
    10:00 +13°C° 0.3 mm 4 mps 745 mmHg 81%
    11:00 +14°C° 0.3 mm 4 mps 745 mmHg 78%
    12:00 +14°C° 0.6 mm 4 mps 745 mmHg 77%
    13:00 +14°C° 0.6 mm 4 mps 745 mmHg 77%
    14:00 +14°C° 0.6 mm 4 mps 745 mmHg 77%
    15:00 +14°C° 0.5 mm 4 mps 745 mmHg 79%
    16:00 +14°C° 0.5 mm 3 mps 745 mmHg 81%
    17:00 +14°C° 0.5 mm 3 mps 745 mmHg 83%
    18:00 +13°C° 0.2 mm 3 mps 746 mmHg 86%
    19:00 +13°C° 0.2 mm 3 mps 746 mmHg 89%
    20:00 +13°C° 0.2 mm 2 mps 746 mmHg 92%
    21:00 +12°C° 0 mm 3 mps 746 mmHg 93%
    22:00 +11°C° 0 mm 3 mps 746 mmHg 95%
    23:00 +11°C° 0 mm 3 mps 746 mmHg 96%
    Show more